CAPE
0 0 0 0 0 0 0 0 0 0 0 0 0 0 0 0 0 0 0 0 1 0 10 27 103 200 495 559 574 565 535 478 278 156 272 238 192 340 104 69 233 430 405 445 415 286 477 477 496 586 752 835 862 944 999 1054 1143 1202 1251 1312 1474 1670 1585 1449 1284 1761 1986 1998 1891 1995 2027 2050 2288 2359 2312 2284 2224 2245 2220 2053 1860 1969 1524 1678 1756 1995
0 0 0 0 0 0 0 0 0 0 0 0 0 0 0 0 0 0 0 0 0 0 0 10 31 135 421 542 569 556 519 502 452 291 368 390 434 443 409 64 216 475 448 338 442 520 540 632 686 680 715 748 711 862 946 1043 1104 1174 1229 1317 1415 1680 1630 1561 1494 1648 1922 1972 1927 1978 2003 1985 1961 2298 2608 2357 2297 2209 2125 2007 1958 1958 1886 1983 2037 2191
0 0 0 0 0 0 0 0 0 0 0 0 0 0 0 0 0 0 0 0 0 0 0 0 31 50 287 477 583 592 566 523 441 398 465 465 471 483 348 88 508 533 654 605 612 699 704 701 712 688 761 816 730 911 985 1067 1117 1180 1294 1351 1420 1700 1657 1602 1622 1736 1882 2012 2140 2034 2092 2056 2080 1987 2057 2131 2151 2324 2302 2156 2094 2023 1868 2214 2137 2342
0 0 0 0 0 0 0 0 0 0 0 0 0 0 0 0 0 0 0 0 0 0 0 0 23 31 170 333 444 514 505 467 423 407 503 554 536 407 286 355 544 641 750 736 743 826 818 743 734 772 1081 982 893 1040 1110 1193 1205 1325 1572 1448 1564 1745 1742 1699 1761 2190 1932 2018 2140 2152 2138 2206 2110 1985 2269 1993 1962 1941 2041 2098 2065 2146 2048 2364 2566 2509
0 0 0 0 0 0 0 0 0 0 0 0 0 0 0 0 0 0 0 0 0 0 0 0 0 18 27 142 208 330 415 441 441 437 460 604 600 560 470 518 565 664 812 805 832 927 895 740 773 942 1256 1172 1062 1174 1275 1385 1418 1523 1675 1572 1698 1779 1827 1817 2043 2405 2008 2222 2188 2172 2098 2036 1996 1751 1575 1439 1515 1729 1830 1853 1730 2259 2602 2808 2718 2550
0 0 0 0 0 0 0 0 0 0 0 0 0 0 0 0 0 0 0 0 0 0 0 13 6 0 0 88 144 180 279 355 420 443 431 514 652 643 628 583 625 646 835 924 897 1010 982 856 828 955 1290 1322 1232 1325 1391 1551 1636 1678 1748 1719 1761 1840 1911 1930 2001 2291 2111 2268 2148 2200 2109 1926 1714 1626 1570 1019 1037 1606 1837 1676 1728 2240 2656 2686 2434 1814
0 0 0 0 0 0 0 0 0 0 0 0 0 0 0 0 0 0 0 4 1 0 0 23 8 0 0 39 167 197 208 224 244 315 388 396 538 678 681 684 700 666 850 1043 1052 1091 1020 991 1030 1038 1320 1402 1344 1426 1499 1706 1816 1803 1786 1852 1831 1954 1988 2025 2078 2268 2240 2244 2197 2092 1991 1885 1706 1585 1354 430 537 1187 1247 810 1322 2008 2259 2097 1147 463
0 0 0 0 0 0 0 0 0 0 0 0 0 0 0 0 0 0 0 3 1 0 2 44 1 0 0 0 142 206 250 260 264 278 296 311 342 592 697 732 731 622 945 1158 1165 1081 941 1115 1119 1148 1356 1498 1453 1489 1611 1768 1955 1948 1898 1899 1867 1968 2123 2151 2161 2226 2263 2155 2049 1958 1900 1790 1676 1483 962 255 0 0 13 1 479 1090 1290 528 81 179
0 0 0 0 0 0 0 0 0 0 0 0 0 0 0 0 0 0 3 4 4 6 29 12 0 2 0 0 72 144 179 212 236 260 268 313 333 371 596 684 686 649 983 1219 1302 1192 1039 1226 1238 1216 1394 1573 1621 1705 1752 1780 1944 2031 2012 2033 2007 1961 2020 2153 2196 2140 2176 2002 1911 1826 1711 1542 1477 1133 533 102 267 53 13 0 0 1 0 0 0 7
0 0 0 0 0 0 0 0 0 0 0 0 0 0 0 0 0 0 0 0 0 1 0 0 0 1 0 0 0 25 90 114 131 164 224 219 229 261 427 571 654 691 962 1260 1393 1451 1306 1303 1381 1367 1477 1662 1776 1889 1908 1869 1894 2002 2039 2102 2155 2125 1935 1954 2073 2106 2113 2000 1806 1678 1540 1602 1065 663 149 77 47 0 0 0 0 0 0 0 0 0
0 0 0 0 0 0 0 0 0 0 0 0 0 0 0 0 0 0 0 0 0 0 0 0 0 1 2 0 0 0 75 74 45 77 141 180 174 177 336 497 694 772 959 1227 1401 1576 1613 1565 1620 1630 1706 1780 1919 1980 2037 2059 2014 2021 2049 2093 2132 2084 1825 1919 2003 2058 2036 1957 1798 1671 1730 1451 775 212 0 0 0 0 0 0 0 0 0 0 0 50
0 0 0 0 0 0 0 0 0 0 0 0 0 0 0 0 0 0 0 0 0 0 0 0 2 0 0 0 0 0 4 8 25 78 97 124 166 181 299 443 702 863 1028 1216 1354 1536 1714 1777 1821 1815 1834 1917 2051 2129 2145 2168 2180 2194 2179 2170 2144 1984 1851 1920 1961 1951 1871 1814 1803 1803 1796 1075 578 0 0 0 0 0 0 0 0 0 0 0 0 0
0 0 0 0 0 0 0 0 0 0 0 0 0 0 0 0 0 0 0 0 0 0 0 0 0 0 0 0 0 0 0 0 5 47 83 96 147 223 286 399 610 910 1062 1267 1369 1488 1666 1791 1860 1915 1963 1994 2051 2150 2207 2209 2191 2181 2154 2115 2057 1967 1937 1938 1990 1988 1877 1813 1861 1972 1508 939 651 71 0 0 0 0 0 0 0 0 0 0 0 0
0 0 0 0 0 0 0 0 0 0 0 0 0 0 0 0 0 0 0 0 0 0 0 0 0 0 0 0 0 0 0 0 0 0 18 75 118 216 293 408 521 860 1091 1260 1386 1476 1641 1773 1824 1905 1980 2039 2071 2094 2156 2178 2174 2182 2200 2157 2050 2000 1997 2022 1996 2020 2018 1983 2043 2029 1448 1137 879 423 0 0 0 0 0 0 0 0 0 0 0 0
0 0 0 0 0 0 0 0 0 0 0 0 0 0 0 0 0 0 0 0 0 0 0 0 0 0 0 0 0 0 2 10 12 44 12 25 87 143 123 379 488 726 1080 1282 1398 1473 1603 1763 1857 1917 1976 2033 2065 2088 2132 2168 2204 2216 2216 2213 2133 2043 2026 2065 2076 2040 2022 2069 2131 1978 1527 1246 810 0 0 0 0 0 0 0 0 0 0 0 0 0
0 0 0 0 0 0 0 0 0 0 0 0 0 0 0 0 0 0 0 0 0 0 0 0 0 0 0 0 0 0 0 8 30 14 30 16 58 74 88 324 445 596 966 1236 1421 1488 1558 1706 1853 1914 1960 2010 2047 2075 2112 2158 2198 2218 2228 2223 2176 2106 2069 2089 2099 2084 2055 2104 2120 1885 1482 1227 670 18 0 0 1 0 0 0 0 0 0 0 0 0
0 0 0 0 0 0 0 0 0 0 0 0 0 0 0 0 0 0 0 0 0 0 0 0 0 0 0 0 0 0 0 3 43 30 7 2 30 63 100 236 392 578 848 1120 1336 1445 1501 1598 1766 1875 1904 1953 1990 2027 2066 2104 2154 2209 2238 2210 2189 2158 2124 2123 2141 2126 2074 2128 2092 1742 1602 1244 551 0 0 0 0 0 0 0 0 0 0 0 0 0
0 0 0 0 0 0 0 0 0 0 0 0 0 0 0 0 0 0 0 0 0 0 0 0 0 0 0 0 0 3 0 0 7 13 59 41 17 60 101 189 385 577 835 1023 1185 1318 1393 1482 1646 1819 1880 1888 1915 1973 2030 2082 2129 2199 2232 2175 2141 2167 2169 2155 2142 2108 2072 2125 2132 1679 1299 866 140 0 0 0 0 0 0 0 0 0 0 0 0 0
0 0 0 0 0 0 0 0 0 0 0 0 0 0 0 0 0 0 0 0 0 0 0 0 0 0 0 0 0 0 2 0 3 5 8 7 13 49 96 238 359 536 842 1036 1118 1175 1281 1394 1535 1713 1836 1857 1861 1888 1973 2054 2114 2174 2212 2160 2080 2099 2126 2084 2044 2059 2112 2182 2076 1498 829 207 0 0 0 0 0 0 0 0 0 0 0 0 0 2
0 0 0 0 0 0 0 0 0 0 0 0 0 0 0 0 0 0 0 0 0 0 0 0 0 0 0 0 0 0 0 0 2 0 2 5 2 23 114 258 328 483 770 1040 1156 1184 1240 1356 1436 1586 1742 1822 1839 1844 1899 2022 2095 2138 2176 2164 2098 2066 2077 2061 2058 2112 2206 2224 1861 1312 772 51 0 0 0 0 0 0 0 0 0 0 0 0 0 0
0 0 0 0 0 0 0 0 0 0 0 0 0 0 0 0 0 0 0 0 0 0 0 0 0 0 0 0 0 0 0 5 2 0 0 2 14 28 126 216 296 417 630 894 1098 1200 1235 1324 1436 1499 1635 1765 1814 1847 1883 1970 2074 2108 2143 2173 2150 2102 2069 2087 2120 2122 2143 2134 1906 1460 948 70 0 0 0 0 0 0 0 0 0 0 0 0 0 0
0 0 0 0 0 0 0 0 0 0 0 0 0 0 0 0 0 0 0 0 0 0 0 0 0 0 0 0 0 0 0 0 0 0 2 3 82 103 43 54 259 366 509 674 889 1062 1195 1268 1362 1474 1521 1640 1700 1804 1865 1919 1974 2038 2114 2171 2197 2142 2070 2035 2055 2106 2122 1995 1838 1573 1113 0 0 0 0 0 0 0 0 0 0 0 0 0 0 0
0 0 0 0 0 0 0 0 0 0 0 0 0 0 0 0 0 0 0 0 0 0 0 0 0 0 0 0 0 0 0 0 0 0 3 2 16 95 134 192 234 318 431 549 628 798 965 1106 1216 1305 1437 1476 1521 1582 1638 1711 1790 1921 2065 2149 2163 2132 2054 1986 1973 1996 1988 1906 1747 1392 1171 232 0 0 0 0 0 0 0 0 0 0 0 0 0 0
0 0 0 0 0 0 0 0 0 0 0 0 0 0 0 0 0 0 0 0 0 0 0 0 0 0 0 0 0 0 0 0 0 0 0 0 0 12 117 148 233 293 355 430 521 617 728 897 967 1095 1269 1356 1412 1467 1500 1524 1665 1841 2002 2090 2105 2067 2038 1943 1870 1882 1943 1861 1674 1384 1111 0 0 0 0 0 0 0 0 0 0 0 0 0 0 0
0 0 0 0 0 0 0 0 0 0 0 0 0 0 0 0 0 0 0 0 0 0 0 0 0 0 0 0 0 0 0 0 0 0 0 0 0 2 99 137 192 104 167 355 411 503 638 681 757 880 986 1176 1340 1380 1401 1426 1633 1826 1968 2051 2061 2038 2005 1951 1808 1765 1804 1784 1677 1492 1300 43 0 0 0 0 0 0 0 0 0 0 0 0 0 0
0 0 0 0 0 0 0 0 0 0 0 0 0 0 0 0 0 0 0 0 0 0 0 0 0 0 0 0 0 0 0 0 0 0 0 0 0 0 20 131 153 0 192 286 363 428 478 570 636 705 789 984 1178 1292 1341 1401 1604 1806 1963 2020 2030 2002 1942 1906 1835 1770 1744 1717 1627 1494 1242 234 2 308 0 0 0 0 0 0 0 0 0 0 0 0
0 0 0 0 0 0 0 0 0 0 0 0 0 0 0 0 0 0 0 0 0 0 0 0 0 0 0 0 0 0 0 0 0 0 0 0 0 0 93 138 1 0 5 12 184 343 416 480 504 589 728 823 996 1148 1274 1344 1524 1752 1916 1998 1999 1977 1920 1841 1806 1761 1697 1658 1655 1514 824 456 1 57 0 0 0 0 0 0 0 0 0 0 0 0
0 0 0 0 0 0 0 0 0 0 0 0 0 0 0 0 0 0 0 0 0 0 0 0 0 0 0 0 0 0 0 0 0 0 16 62 0 0 0 99 104 0 0 14 209 323 345 383 470 541 662 755 843 1023 1168 1253 1425 1660 1858 1964 1990 1983 1920 1846 1772 1768 1731 1604 1429 1460 1197 610 108 0 0 0 16 0 0 0 0 0 0 0 0 0
2 0 0 0 0 0 0 0 0 0 0 0 0 0 0 0 0 0 0 0 0 0 0 0 0 0 0 0 0 0 0 0 0 0 0 0 0 0 0 0 2 1 238 333 360 348 380 416 446 496 611 702 760 848 1015 1176 1300 1502 1738 1893 1981 2007 1986 1913 1834 1727 1646 1511 1499 1376 1253 947 297 252 0 0 0 0 0 0 0 0 0 0 0 0
1 0 0 0 0 0 0 0 0 0 0 0 0 0 0 0 0 0 0 0 0 0 0 0 0 0 0 0 0 0 0 0 0 0 0 0 0 0 0 0 9 14 86 307 379 417 430 448 473 470 499 632 736 811 887 1041 1201 1345 1561 1781 1922 1987 2000 1953 1835 1755 1700 1587 1473 1373 1424 1170 484 418 227 0 0 0 0 0 0 0 0 0 0 0
0 0 21 0 0 0 0 0 0 0 0 4 0 0 0 0 0 1 0 0 0 0 0 0 0 0 0 0 0 0 0 0 0 0 0 0 0 6 4 4 17 34 22 53 68 369 416 448 447 454 494 613 726 812 888 933 1008 1196 1397 1619 1807 1914 1953 1879 1821 1785 1708 1625 1582 1536 1372 1040 761 671 46 136 0 0 0 0 1 0 0 0 0 0
8 0 47 0 0 0 0 0 0 0 5 7 3 0 0 0 0 3 3 2 2 1 1 0 0 0 0 0 0 0 0 0 0 0 0 0 2 26 56 14 181 283 323 212 413 436 464 488 504 504 537 680 790 801 849 929 1019 1136 1343 1507 1680 1776 1808 1829 1841 1845 1786 1679 1551 1531 1355 1244 848 598 421 296 0 0 0 0 0 1 0 0 0 0
26 8 0 0 0 0 0 0 0 4 20 21 15 10 12 23 27 22 12 11 14 9 6 1 0 0 0 0 0 0 0 0 0 0 0 0 0 99 84 17 35 90 389 434 472 522 554 580 598 572 608 652 774 1002 1010 1025 1122 1234 1343 1460 1604 1691 1744 1791 1816 1824 1737 1597 1551 1486 1324 1276 1118 1076 740 346 129 0 0 0 1 2 0 0 0 0
64 23 0 0 0 0 0 0 1 39 48 25 9 15 28 32 39 41 30 25 21 16 11 3 0 0 0 0 0 0 0 0 0 0 0 0 0 0 1 10 44 422 510 644 826 1016 1042 998 1044 1006 1015 1100 1174 1114 1038 1199 1243 1290 1366 1482 1559 1633 1668 1663 1704 1718 1658 1597 1512 1396 1526 1266 1212 810 717 424 0 1 0 0 4 31 8 5 0 0
55 36 2 0 0 0 0 0 13 36 30 20 21 41 48 39 19 14 20 26 13 14 8 0 0 0 0 0 0 0 0 0 0 0 0 0 0 0 0 111 475 701 771 950 1209 1352 1483 1501 1576 1549 1453 1377 1212 1047 1028 1244 1368 1444 1474 1502 1582 1630 1635 1623 1625 1613 1586 1582 1468 1528 1442 1461 1336 950 875 474 71 0 0 0 17 52 38 10 0 82
56 36 45 14 0 0 0 0 16 31 37 7 50 31 47 42 32 28 38 44 33 7 0 4 5 0 0 0 0 0 0 0 0 0 0 0 0 0 0 85 93 100 92 332 363 562 908 1094 1225 1449 1646 1505 1393 1323 1269 1260 1337 1442 1521 1573 1634 1661 1641 1640 1617 1612 1557 1515 1512 1451 1176 1290 932 838 657 104 0 0 0 11 50 79 152 221 278 346
67 44 46 52 35 0 0 1 8 7 36 35 36 19 26 50 28 27 39 33 11 5 2 80 3 0 0 0 0 0 0 2 5 4 0 0 0 0 0 0 0 0 0 0 3 41 549 946 1227 1439 1630 1585 1589 1501 1418 1427 1429 1444 1483 1520 1574 1622 1653 1644 1649 1685 1642 1576 1606 1442 1056 996 798 520 112 65 0 0 14 60 107 150 274 349 400 434
66 52 47 49 43 2 15 1 74 94 59 46 52 37 20 17 10 5 21 22 0 0 0 63 0 1 0 0 0 2 9 11 12 7 0 0 0 0 0 57 19 9 136 347 458 562 660 1167 1408 1631 1745 1696 1611 1547 1529 1456 1431 1417 1459 1518 1543 1588 1635 1642 1675 1688 1686 1648 1639 1205 991 900 739 586 442 9 0 5 50 136 223 312 440 477 503 523
84 66 66 39 40 17 14 21 64 63 49 50 51 70 41 25 10 10 58 48 3 0 0 0 0 0 0 0 0 0 9 10 13 13 49 91 93 97 216 434 882 1088 1132 974 807 800 1065 1410 1561 1713 1747 1610 1554 1492 1600 1519 1450 1436 1442 1458 1449 1480 1523 1547 1585 1612 1622 1614 1585 1399 1016 938 818 648 528 419 27 48 129 276 355 430 486 577 615 626
92 80 77 61 40 44 51 36 45 46 77 52 78 52 50 40 17 6 30 48 12 0 0 0 0 0 0 0 129 74 29 17 129 136 134 142 541 839 825 1214 1439 1519 1520 1366 1248 1184 1334 1461 1412 1534 1661 1565 1564 1409 1459 1504 1480 1436 1420 1362 1375 1374 1411 1452 1483 1463 1399 1392 1294 1058 936 723 614 452 485 8 20 235 243 389 476 552 579 655 710 648
44 77 54 49 38 19 48 59 62 138 156 50 62 46 22 28 39 31 17 36 170 21 0 0 0 0 0 0 69 162 105 112 165 182 546 860 1131 1253 1320 1480 1569 1580 1575 1560 1509 1574 1495 1506 1379 1346 1477 1470 1496 1510 1540 1509 1429 1378 1345 1337 1313 1334 1410 1447 1348 1231 1189 1226 1238 1054 778 695 636 658 479 369 259 331 444 375 343 412 555 592 490 395
41 32 34 30 24 16 32 48 84 241 42 41 20 14 11 4 12 30 18 12 11 19 1 0 0 0 0 0 0 9 48 320 497 643 768 880 1074 1179 1473 1577 1635 1766 1729 1795 1597 1588 1592 1582 1383 1343 1394 1536 1734 1752 1649 1525 1361 1301 1260 1240 1291 1358 1430 1369 1200 1106 1108 1106 1014 790 688 657 640 660 578 564 480 535 628 702 707 571 446 451 533 608
21 24 39 30 39 22 13 21 18 229 306 262 58 223 58 16 12 0 14 3 9 0 0 0 21 19 1 11 3 223 444 530 694 914 1048 986 1040 1117 1121 1262 1372 1505 1669 1676 1699 1676 1600 1593 1494 1568 1735 1852 1882 1816 1632 1440 1324 1248 1264 1342 1367 1358 1330 1205 1130 1080 1030 946 801 711 677 647 751 803 793 791 925 981 991 979 1051 1058 964 959 1014 960
23 3 4 2 7 35 41 30 25 53 52 114 106 34 27 83 79 40 0 11 1 27 24 71 83 82 76 22 39 340 619 802 1001 1346 1461 1424 1317 1140 1006 1040 1099 1392 1514 1562 1441 1430 1460 1602 1674 1816 1935 1946 1812 1679 1524 1362 1270 1278 1339 1481 1508 1441 1311 1208 1124 987 869 773 747 715 703 684 697 785 871 919 822 975 1054 1092 1176 1356 1355 1247 1178 997
14 16 5 3 140 390 7 11 14 210 273 46 42 41 33 156 154 194 32 13 115 366 85 111 157 159 153 112 63 443 577 756 814 1038 1307 1379 1385 1288 1108 981 983 1236 1339 1397 1407 1480 1672 1736 1850 1908 1976 1849 1685 1507 1392 1289 1230 1371 1620 1606 1452 1326 1174 1097 998 937 933 858 769 724 701 727 754 801 825 760 719 764 839 1049 1231 1404 1497 1474 1214 920
383 72 0 5 25 0 4 5 139 7 132 175 17 27 14 0 0 113 403 458 361 354 278 65 71 159 338 632 754 797 730 683 617 786 969 1125 1487 1526 1339 1251 1159 1245 1266 1318 1402 1612 1830 1924 1929 1954 1920 1643 1478 1346 1257 1247 1432 1650 1602 1335 1127 989 876 848 841 872 970 918 770 715 709 648 644 498 215 342 756 896 992 1050 1176 1317 1398 1327 1263 1264
268 133 78 34 1 33 34 2 17 46 44 15 4 0 39 0 0 389 431 390 75 25 16 69 534 632 710 790 770 801 813 753 700 727 695 836 1021 1256 1261 1416 1575 1448 1494 1536 1566 1754 1943 2016 1961 1853 1696 1508 1248 1253 1268 1434 1676 1596 1353 1100 907 779 706 621 605 693 773 873 801 779 756 675 485 425 570 745 886 950 996 1067 1198 1259 1211 1110 1103 1081
248 208 13 8 0 2 24 0 4 2 2 147 8 8 0 0 8 0 0 7 0 0 0 0 0 1 41 61 405 812 927 822 688 864 866 886 825 1172 1334 1490 1584 1530 1544 1698 1759 1862 1982 1988 1923 1794 1614 1468 1272 1342 1482 1660 1685 1441 1079 809 659 533 405 19 32 134 499 671 744 707 672 320 417 623 692 863 1029 1115 1183 1260 1204 1155 991 897 875 885
183 1148 128 0 0 0 0 0 0 0 0 0 0 0 0 0 0 0 0 0 0 0 0 0 0 39 130 106 50 42 22 41 698 891 991 1074 1159 1148 1200 1172 1350 1502 1496 1470 1538 1720 1796 1824 1777 1662 1564 1464 1389 1491 1636 1614 1450 1085 766 665 578 604 601 641 560 37 357 588 453 24 11 11 127 59 0 550 711 811 865 999 1111 1062 978 816 682 576
155 171 17 4 1 4 0 0 0 1 8 0 0 0 0 0 0 222 85 339 270 26 0 10 16 0 34 33 12 11 0 9 48 49 829 951 958 1080 1170 1239 1241 1194 1313 1365 1429 1432 1483 1569 1558 1561 1489 1453 1474 1540 1559 1389 1086 726 670 682 588 434 344 101 308 5 9 1 0 0 0 0 0 0 0 0 303 429 583 704 731 637 587 594 514 398
7 61 24 19 1 14 0 13 9 0 0 0 0 0 0 0 0 64 263 80 15 0 8 9 0 0 0 0 0 0 66 44 62 57 224 891 988 1048 1011 1096 1030 998 1216 1276 1254 1252 1240 1300 1359 1408 1377 1375 1356 1267 984 882 763 694 698 887 752 501 0 273 250 0 0 0 0 0 0 0 0 0 0 102 336 493 573 574 468 492 491 462 495 507
Wind_Speed
nan nan nan nan nan nan nan nan nan nan nan nan nan nan nan nan nan nan nan nan nan nan nan nan 10 16 25 27 25 24 22 21 21 20 17 16 16 15 15 nan 18 18 20 17 17 16 16 14 13 11 9 8 7 7 7 7 6 5 5 3 4 3 4 5 4 4 5 4 3 3 5 5 5 5 4 4 4 4 5 6 9 12 12 11 11 12
nan nan nan nan nan nan nan nan nan nan nan nan nan nan nan nan nan nan nan nan nan nan nan nan nan 14 26 28 26 22 22 25 27 25 22 19 16 15 16 nan 17 16 11 12 13 14 14 14 13 13 11 10 10 6 6 7 7 5 4 5 5 3 4 6 7 6 4 3 5 5 6 5 5 6 6 5 4 5 5 6 9 10 11 11 11 12
nan nan nan nan nan nan nan nan nan nan nan nan nan nan nan nan nan nan nan nan nan nan nan nan nan nan 19 24 23 25 28 26 28 29 27 24 20 16 15 nan 14 11 11 12 14 14 15 16 14 13 13 12 12 10 8 7 6 4 4 3 3 3 5 6 5 6 4 3 3 5 5 7 5 5 5 5 5 7 8 8 10 12 12 13 13 14
nan nan nan nan nan nan nan nan nan nan nan nan nan nan nan nan nan nan nan nan nan nan nan nan nan nan 7 12 18 21 25 23 27 29 24 22 24 21 19 18 16 14 13 14 14 15 15 15 15 14 14 14 11 10 7 6 7 5 4 3 4 4 4 4 4 5 5 6 6 6 8 7 7 6 7 8 8 10 11 12 12 12 14 15 15 15
nan nan nan nan nan nan nan nan nan nan nan nan nan nan nan nan nan nan nan nan nan nan nan nan nan nan nan 13 13 14 16 16 21 22 17 15 18 21 21 20 18 18 16 15 14 13 14 15 16 17 15 15 13 11 10 8 8 6 7 6 6 5 5 4 6 7 8 9 10 10 10 11 10 9 9 10 10 12 13 14 15 15 16 17 18 18
nan nan nan nan nan nan nan nan nan nan nan nan nan nan nan nan nan nan nan nan nan nan nan nan nan nan nan nan 16 15 15 17 19 21 18 15 15 14 16 19 17 15 15 18 18 16 16 16 15 14 16 16 14 13 11 11 11 10 9 9 8 8 7 8 8 10 12 11 13 13 13 12 12 11 13 14 15 15 17 17 16 17 19 19 20 21
nan nan nan nan nan nan nan nan nan nan nan nan nan nan nan nan nan nan nan nan nan nan nan nan nan nan nan nan 14 12 13 15 15 18 17 15 15 15 15 16 17 16 14 12 15 16 16 16 16 16 16 17 16 14 14 13 13 13 13 12 12 11 10 10 11 13 14 14 15 16 15 15 16 17 13 13 15 20 19 20 20 19 19 20 22 22
nan nan nan nan nan nan nan nan nan nan nan nan nan nan nan nan nan nan nan nan nan nan nan nan nan nan nan nan 13 13 12 12 12 14 16 14 16 16 15 16 16 17 16 16 17 17 18 18 18 19 18 17 16 16 16 15 15 16 16 16 15 14 14 13 15 15 16 17 17 17 16 17 18 19 18 18 nan nan nan nan 23 22 22 22 nan 24
nan nan nan nan nan nan nan nan nan nan nan nan nan nan nan nan nan nan nan nan nan nan nan nan nan nan nan nan nan 21 13 8 13 17 17 18 17 18 18 18 19 19 19 19 18 18 18 18 18 19 20 18 17 17 17 17 17 18 18 19 19 18 17 17 18 19 19 20 21 20 20 19 18 20 21 21 21 nan nan nan nan nan nan nan nan nan
nan nan nan nan nan nan nan nan nan nan nan nan nan nan nan nan nan nan nan nan nan nan nan nan nan nan nan nan nan nan nan 8 14 19 20 20 21 22 22 22 22 21 19 19 21 21 20 19 19 19 20 18 17 17 18 18 18 19 20 21 22 20 20 21 21 22 22 23 24 24 23 23 23 24 24 nan nan nan nan nan nan nan nan nan nan nan
nan nan nan nan nan nan nan nan nan nan nan nan nan nan nan nan nan nan nan nan nan nan nan nan nan nan nan nan nan nan nan nan nan nan 11 13 18 21 24 25 24 23 23 21 21 21 20 21 21 20 19 18 18 18 19 19 20 21 22 22 23 22 23 24 24 25 25 26 26 27 28 29 30 30 nan nan nan nan nan nan nan nan nan nan nan nan
nan nan nan nan nan nan nan nan nan nan nan nan nan nan nan nan nan nan nan nan nan nan nan nan nan nan nan nan nan nan nan nan nan nan nan 20 25 25 24 23 23 24 25 25 26 23 19 18 18 16 16 18 19 19 19 19 21 22 23 24 24 23 25 26 26 27 27 29 29 30 32 33 34 nan nan nan nan nan nan nan nan nan nan nan nan nan
nan nan nan nan nan nan nan nan nan nan nan nan nan nan nan nan nan nan nan nan nan nan nan nan nan nan nan nan nan nan nan nan nan nan nan nan 27 27 25 25 24 26 26 25 27 24 16 16 17 16 16 18 20 20 21 21 21 22 23 24 24 24 26 27 28 29 29 30 30 32 33 33 34 nan nan nan nan nan nan nan nan nan nan nan nan nan
nan nan nan nan nan nan nan nan nan nan nan nan nan nan nan nan nan nan nan nan nan nan nan nan nan nan nan nan nan nan nan nan nan nan nan nan 28 30 28 26 25 27 28 26 27 24 17 14 15 16 18 19 20 21 23 23 22 22 22 23 24 24 25 25 26 28 28 28 29 30 31 31 31 29 nan nan nan nan nan nan nan nan nan nan nan nan
nan nan nan nan nan nan nan nan nan nan nan nan nan nan nan nan nan nan nan nan nan nan nan nan nan nan nan nan nan nan nan nan nan nan nan nan nan 28 27 25 25 25 24 24 23 22 19 17 18 20 21 22 22 23 24 23 23 23 22 23 23 23 24 25 26 26 27 27 27 28 28 28 26 nan nan nan nan nan nan nan nan nan nan nan nan nan
nan nan nan nan nan nan nan nan nan nan nan nan nan nan nan nan nan nan nan nan nan nan nan nan nan nan nan nan nan nan nan nan nan nan nan nan nan nan nan 20 21 21 22 21 21 22 22 20 21 23 24 26 26 25 23 23 23 23 23 23 23 24 24 24 25 25 26 26 27 27 27 27 26 nan nan nan nan nan nan nan nan nan nan nan nan nan
nan nan nan nan nan nan nan nan nan nan nan nan nan nan nan nan nan nan nan nan nan nan nan nan nan nan nan nan nan nan nan nan nan nan nan nan nan nan 21 18 19 20 20 20 22 24 25 22 23 24 25 25 25 25 23 23 23 25 24 23 23 23 23 23 24 25 25 26 27 27 27 27 27 nan nan nan nan nan nan nan nan nan nan nan nan nan
nan nan nan nan nan nan nan nan nan nan nan nan nan nan nan nan nan nan nan nan nan nan nan nan nan nan nan nan nan nan nan nan nan nan nan nan nan nan 20 18 20 22 22 23 26 27 26 27 30 29 26 25 23 22 21 21 21 22 22 23 24 24 24 24 25 26 26 27 28 29 29 29 29 nan nan nan nan nan nan nan nan nan nan nan nan nan
nan nan nan nan nan nan nan nan nan nan nan nan nan nan nan nan nan nan nan nan nan nan nan nan nan nan nan nan nan nan nan nan nan nan nan nan nan nan nan 20 21 22 21 21 24 24 23 25 27 28 27 25 22 20 18 18 19 18 17 18 20 23 25 27 27 27 27 28 28 30 32 32 nan nan nan nan nan nan nan nan nan nan nan nan nan nan
nan nan nan nan nan nan nan nan nan nan nan nan nan nan nan nan nan nan nan nan nan nan nan nan nan nan nan nan nan nan nan nan nan nan nan nan nan nan 19 21 23 24 23 22 25 27 26 26 26 27 27 24 22 19 17 18 17 17 17 18 19 20 22 25 28 29 30 31 31 32 32 nan nan nan nan nan nan nan nan nan nan nan nan nan nan nan
nan nan nan nan nan nan nan nan nan nan nan nan nan nan nan nan nan nan nan nan nan nan nan nan nan nan nan nan nan nan nan nan nan nan nan nan nan nan 16 20 23 25 23 23 27 28 27 26 25 25 24 22 19 16 16 17 18 18 19 19 21 24 27 29 30 31 32 35 35 37 36 nan nan nan nan nan nan nan nan nan nan nan nan nan nan nan
nan nan nan nan nan nan nan nan nan nan nan nan nan nan nan nan nan nan nan nan nan nan nan nan nan nan nan nan nan nan nan nan nan nan nan nan nan 13 nan nan 24 23 23 26 27 26 25 26 27 26 22 17 15 14 15 16 17 18 20 22 24 25 26 29 31 34 36 38 39 40 38 nan nan nan nan nan nan nan nan nan nan nan nan nan nan nan
nan nan nan nan nan nan nan nan nan nan nan nan nan nan nan nan nan nan nan nan nan nan nan nan nan nan nan nan nan nan nan nan nan nan nan nan nan nan 17 20 22 23 25 25 24 23 24 24 26 27 25 21 19 18 18 17 18 20 22 24 25 27 29 31 34 36 39 41 42 41 40 41 nan nan nan nan nan nan nan nan nan nan nan nan nan nan
nan nan nan nan nan nan nan nan nan nan nan nan nan nan nan nan nan nan nan nan nan nan nan nan nan nan nan nan nan nan nan nan nan nan nan nan nan nan 22 21 21 21 20 21 23 22 22 21 21 20 19 17 15 14 15 16 17 18 20 23 26 28 30 33 36 39 41 43 43 42 45 nan nan nan nan nan nan nan nan nan nan nan nan nan nan nan
nan nan nan nan nan nan nan nan nan nan nan nan nan nan nan nan nan nan nan nan nan nan nan nan nan nan nan nan nan nan nan nan nan nan nan nan nan nan nan 22 21 22 21 21 21 22 22 22 23 22 22 22 20 18 17 17 18 19 21 24 27 29 32 36 39 41 43 44 45 47 53 nan nan nan nan nan nan nan nan nan nan nan nan nan nan nan
nan nan nan nan nan nan nan nan nan nan nan nan nan nan nan nan nan nan nan nan nan nan nan nan nan nan nan nan nan nan nan nan nan nan nan nan nan nan nan 21 22 nan 22 24 26 24 25 26 25 24 25 25 23 21 20 20 20 21 23 25 28 30 34 38 41 43 44 44 47 54 59 53 nan 40 nan nan nan nan nan nan nan nan nan nan nan nan
nan nan nan nan nan nan nan nan nan nan nan nan nan nan nan nan nan nan nan nan nan nan nan nan nan nan nan nan nan nan nan nan nan nan nan nan nan nan nan 22 nan nan nan nan 29 27 25 23 25 29 30 28 26 24 23 23 24 26 28 29 31 33 36 40 43 43 45 47 53 57 57 49 nan nan nan nan nan nan nan nan nan nan nan nan nan nan
nan nan nan nan nan nan nan nan nan nan nan nan nan nan nan nan nan nan nan nan nan nan nan nan nan nan nan nan nan nan nan nan nan nan nan nan nan nan nan nan 24 nan nan nan 27 27 27 27 28 29 30 30 27 26 25 26 28 31 32 33 34 37 39 42 45 47 49 54 57 59 57 48 48 nan nan nan nan nan nan nan nan nan nan nan nan nan
nan nan nan nan nan nan nan nan nan nan nan nan nan nan nan nan nan nan nan nan nan nan nan nan nan nan nan nan nan nan nan nan nan nan nan nan nan nan nan nan nan nan 27 28 29 29 28 28 28 29 29 28 26 26 27 27 27 28 28 30 34 37 40 47 53 54 54 56 58 57 59 53 52 47 nan nan nan nan nan nan nan nan nan nan nan nan
nan nan nan nan nan nan nan nan nan nan nan nan nan nan nan nan nan nan nan nan nan nan nan nan nan nan nan nan nan nan nan nan nan nan nan nan nan nan nan nan nan nan nan 31 31 31 29 29 29 28 27 25 27 28 29 29 30 31 33 37 41 43 45 52 53 54 53 55 57 57 59 58 53 46 39 nan nan nan nan nan nan nan nan nan nan nan
nan nan nan nan nan nan nan nan nan nan nan nan nan nan nan nan nan nan nan nan nan nan nan nan nan nan nan nan nan nan nan nan nan nan nan nan nan nan nan nan nan nan nan nan nan 32 31 30 30 28 25 24 27 30 32 32 33 33 36 41 45 48 51 53 52 51 51 52 54 55 56 53 47 39 nan 39 nan nan nan nan nan nan nan nan nan nan
nan nan nan nan nan nan nan nan nan nan nan nan nan nan nan nan nan nan nan nan nan nan nan nan nan nan nan nan nan nan nan nan nan nan nan nan nan nan nan nan 32 32 34 34 34 34 34 36 36 31 27 27 30 32 33 34 34 37 39 43 46 51 55 54 52 51 50 52 54 56 55 50 45 42 43 45 nan nan nan nan nan nan nan nan nan nan
nan nan nan nan nan nan nan nan nan nan nan nan nan nan nan nan nan nan nan nan nan nan nan nan nan nan nan nan nan nan nan nan nan nan nan nan nan nan nan nan nan nan 34 36 37 37 37 39 38 34 32 35 38 38 39 39 39 38 42 47 50 53 54 53 53 52 53 56 59 60 56 49 44 43 42 43 44 nan nan nan nan nan nan nan nan nan
nan nan nan nan nan nan nan nan nan nan nan nan nan nan nan nan nan nan nan nan nan nan nan nan nan nan nan nan nan nan nan nan nan nan nan nan nan nan nan nan nan 34 35 37 38 39 40 42 40 36 37 41 42 42 43 42 42 43 47 51 54 56 56 57 54 55 55 56 58 56 49 45 44 43 42 42 nan nan nan nan nan nan nan nan nan nan
nan nan nan nan nan nan nan nan nan nan nan nan nan nan nan nan nan nan nan nan nan nan nan nan nan nan nan nan nan nan nan nan nan nan nan nan nan nan nan 37 37 36 35 37 37 37 40 43 43 41 42 45 46 46 47 42 43 47 51 54 55 54 56 55 55 53 53 54 53 47 41 44 44 43 42 41 nan nan nan nan nan nan nan nan nan nan
nan nan nan nan nan nan nan nan nan nan nan nan nan nan nan nan nan nan nan nan nan nan nan nan nan nan nan nan nan nan nan nan nan nan nan nan nan nan nan nan nan 39 nan 38 40 39 40 40 41 43 45 46 48 50 49 46 46 51 52 52 55 54 56 56 56 55 54 54 54 48 43 46 44 42 42 42 nan nan nan nan nan nan 23 23 23 23
nan nan nan nan nan nan nan nan nan nan nan nan nan nan nan nan nan nan nan nan nan nan nan nan nan nan nan nan nan nan nan nan nan nan nan nan nan nan nan nan nan nan nan nan nan nan 37 38 39 42 47 48 49 51 50 49 51 55 55 53 52 54 55 55 55 55 53 53 52 47 42 43 45 45 43 nan nan nan nan nan 24 22 23 23 22 24
nan nan nan nan nan nan nan nan nan nan nan nan nan nan nan nan nan nan nan nan nan nan nan nan nan nan nan nan nan nan nan nan nan nan nan nan nan nan nan nan nan nan 43 42 41 42 41 39 39 43 48 50 48 49 51 54 59 60 57 54 53 53 53 53 53 52 52 53 53 49 45 43 44 46 43 nan nan nan nan 28 23 21 25 24 23 23
nan nan nan nan nan nan nan nan nan nan nan nan nan nan nan nan nan nan nan nan nan nan nan nan nan nan nan nan nan nan nan nan nan nan nan nan nan nan 46 42 44 45 46 46 47 47 42 40 43 47 49 50 52 51 53 58 62 60 55 52 52 52 53 53 53 53 52 52 52 51 49 47 47 46 39 32 nan nan 31 31 27 25 28 25 25 24
nan nan nan nan nan nan nan nan nan nan nan nan nan nan nan nan nan nan nan nan nan nan nan nan nan nan nan nan 41 nan nan nan 38 40 38 41 41 38 39 45 46 48 48 48 46 44 44 46 51 50 49 50 52 54 57 60 59 55 52 50 52 53 53 54 54 53 51 51 51 51 50 47 47 43 35 nan nan 31 33 32 29 30 32 31 30 27
nan nan nan nan nan nan nan nan nan 48 45 nan nan nan nan nan nan nan nan nan 46 nan nan nan nan nan nan nan nan 45 40 40 40 41 45 46 46 46 46 46 47 46 48 47 46 46 46 46 48 49 49 50 53 55 57 57 53 50 49 51 51 52 52 51 50 49 47 47 48 49 48 46 45 41 35 34 34 35 36 35 34 35 36 33 28 25
nan nan nan nan nan nan nan nan nan 45 nan nan nan nan nan nan nan nan nan nan nan nan nan nan nan nan nan nan nan nan nan 44 45 47 47 47 47 46 48 50 51 51 48 47 47 49 49 50 50 51 53 52 53 53 52 49 46 46 48 50 51 50 49 48 47 46 45 46 48 48 47 45 42 39 38 38 40 42 41 38 39 39 36 30 27 30
nan nan nan nan nan nan nan nan nan 46 44 48 nan 49 nan nan nan nan nan nan nan nan nan nan nan nan nan nan nan 49 50 50 49 48 46 46 48 48 50 52 52 51 51 51 51 52 55 56 56 56 56 54 51 49 46 45 46 47 49 51 50 48 47 46 46 46 46 46 46 46 45 43 43 43 42 41 42 41 37 33 33 32 29 27 32 41
nan nan nan nan nan nan nan nan nan nan nan 48 47 nan nan nan nan nan nan nan nan nan nan nan nan nan nan nan nan 54 53 53 52 51 51 50 50 50 51 52 53 53 55 55 57 60 60 55 53 53 53 52 48 46 44 45 48 51 52 49 47 47 46 46 46 47 46 46 46 45 45 45 45 45 43 40 37 33 30 31 30 29 30 33 40 46
nan nan nan nan 51 51 nan nan nan 49 49 nan nan nan nan 56 60 59 nan nan 54 54 nan 56 54 53 54 57 nan 57 56 54 54 54 56 52 52 51 51 53 54 56 56 56 58 58 52 42 41 44 47 47 48 47 47 48 51 49 48 44 45 45 45 45 45 45 45 45 46 47 48 47 46 43 39 33 28 25 28 30 32 35 38 41 41 44
53 nan nan nan nan nan nan nan 53 nan 55 57 nan nan nan nan nan 57 62 64 59 58 60 nan nan 57 57 58 63 58 57 56 58 57 55 52 49 48 49 53 57 57 56 53 49 45 39 36 38 42 44 46 47 48 47 47 46 45 41 41 43 44 45 45 45 46 46 46 47 48 47 45 40 35 27 24 25 28 31 33 36 41 42 40 41 46
50 50 nan nan nan nan nan nan nan nan nan nan nan nan nan nan nan 55 59 59 nan nan nan nan 63 64 65 67 68 65 62 61 62 57 54 52 51 50 52 55 54 54 52 46 40 38 36 36 38 40 42 45 44 45 45 45 44 43 42 42 42 43 44 46 47 47 47 47 48 48 46 43 36 31 31 31 33 35 35 36 39 41 41 41 46 51
47 46 nan nan nan nan nan nan nan nan nan 52 nan nan nan nan nan nan nan nan nan nan nan nan nan nan nan nan 66 66 63 60 61 57 56 55 54 51 50 49 45 42 40 39 35 34 33 33 35 39 43 44 44 44 44 44 44 44 44 43 43 43 44 nan nan 45 46 48 47 44 40 36 34 34 35 36 39 39 37 38 40 41 43 47 51 53
48 45 47 nan nan nan nan nan nan nan nan nan nan nan nan nan nan nan nan nan nan nan nan nan nan nan 52 60 nan nan nan nan 54 51 51 50 48 46 44 41 37 36 35 35 33 34 34 36 39 42 45 44 43 44 44 45 45 46 46 46 46 46 47 48 47 nan 41 39 35 nan nan nan 33 nan nan 41 41 41 42 42 43 46 48 48 49 48
55 50 nan nan nan nan nan nan nan nan nan nan nan nan nan nan nan 46 nan 46 45 nan nan nan nan nan nan nan nan nan nan nan nan nan 44 44 41 38 36 35 34 35 35 35 36 36 37 39 42 43 43 42 42 44 45 46 47 46 47 48 47 48 52 52 49 nan nan nan nan nan nan nan nan nan nan nan 47 49 51 52 52 48 49 50 48 48
nan nan nan nan nan nan nan nan nan nan nan nan nan nan nan nan nan nan 43 nan nan nan nan nan nan nan nan nan nan nan nan nan nan nan 36 34 34 34 32 35 37 37 36 35 36 36 37 39 40 42 43 42 43 46 47 47 47 47 47 47 47 49 nan 51 46 nan nan nan nan nan nan nan nan nan nan 51 51 51 52 50 50 52 52 50 49 49
Wind_Direction
nan nan nan nan nan nan nan nan nan nan nan nan nan nan nan nan nan nan nan nan nan nan nan nan 359 6 9 5 360 0 2 3 354 354 1 5 5 7 7 nan 13 10 14 8 8 3 3 358 353 351 343 343 353 359 1 6 18 28 29 15 21 1 327 322 331 345 340 332 325 307 338 343 336 330 330 336 330 325 334 323 319 320 329 327 330 325
nan nan nan nan nan nan nan nan nan nan nan nan nan nan nan nan nan nan nan nan nan nan nan nan nan 10 17 16 8 4 2 6 357 352 354 356 360 4 5 nan 8 11 1 349 358 3 1 355 347 341 337 330 336 344 345 356 4 13 16 9 16 330 337 353 357 351 338 331 338 336 355 340 336 344 343 5 354 348 327 320 317 319 321 330 325 322
nan nan nan nan nan nan nan nan nan nan nan nan nan nan nan nan nan nan nan nan nan nan nan nan nan nan 19 19 13 8 8 3 356 352 351 347 351 353 358 nan 356 350 353 350 359 355 358 356 345 340 338 338 339 336 346 353 346 351 355 9 352 350 355 5 347 319 324 309 313 324 326 336 337 342 341 331 323 318 321 326 324 324 330 327 326 327
nan nan nan nan nan nan nan nan nan nan nan nan nan nan nan nan nan nan nan nan nan nan nan nan nan nan 9 27 20 9 1 358 355 356 350 343 343 345 350 349 347 346 345 351 353 354 352 349 347 343 339 336 329 328 331 331 335 320 328 330 330 343 347 338 322 308 307 308 305 304 304 308 302 311 312 306 302 311 314 323 324 324 321 319 320 318
nan nan nan nan nan nan nan nan nan nan nan nan nan nan nan nan nan nan nan nan nan nan nan nan nan nan nan 354 10 8 2 350 352 355 353 343 344 346 341 336 339 343 341 344 345 347 344 341 346 346 339 329 328 326 326 319 318 305 322 319 319 312 315 299 298 302 290 281 281 280 270 278 285 283 285 300 306 318 319 313 319 325 316 318 318 319
nan nan nan nan nan nan nan nan nan nan nan nan nan nan nan nan nan nan nan nan nan nan nan nan nan nan nan nan 0 348 346 354 341 351 1 351 347 335 331 340 338 338 334 340 345 345 339 335 331 334 333 331 327 326 323 316 316 308 305 299 294 284 285 292 296 297 293 299 300 294 298 296 297 310 306 320 325 320 318 322 315 312 315 315 314 316
nan nan nan nan nan nan nan nan nan nan nan nan nan nan nan nan nan nan nan nan nan nan nan nan nan nan nan nan 351 338 345 349 325 355 8 353 348 342 344 345 341 340 334 333 334 328 327 328 326 328 330 331 327 326 313 308 309 308 304 299 297 293 291 290 293 294 295 296 296 304 310 312 317 319 321 316 315 316 314 306 307 310 307 308 309 310
nan nan nan nan nan nan nan nan nan nan nan nan nan nan nan nan nan nan nan nan nan nan nan nan nan nan nan nan 332 319 330 340 355 16 18 4 352 348 349 350 348 348 342 334 333 330 327 326 329 331 326 323 326 314 305 306 304 307 305 300 299 292 293 292 290 295 296 297 297 300 304 309 311 313 316 312 nan nan nan nan 304 302 305 305 nan 309
nan nan nan nan nan nan nan nan nan nan nan nan nan nan nan nan nan nan nan nan nan nan nan nan nan nan nan nan nan 305 312 359 34 37 26 13 357 351 350 353 354 353 347 341 333 330 325 326 328 324 324 321 314 305 305 307 307 306 303 303 297 298 296 295 296 297 297 298 301 303 303 304 303 305 306 303 299 nan nan nan nan nan nan nan nan nan
nan nan nan nan nan nan nan nan nan nan nan nan nan nan nan nan nan nan nan nan nan nan nan nan nan nan nan nan nan nan nan 42 45 42 32 12 358 350 348 349 354 353 347 345 339 332 328 322 320 323 319 316 315 304 303 304 300 300 298 302 303 303 299 298 301 301 302 302 300 302 303 304 301 297 294 nan nan nan nan nan nan nan nan nan nan nan
nan nan nan nan nan nan nan nan nan nan nan nan nan nan nan nan nan nan nan nan nan nan nan nan nan nan nan nan nan nan nan nan nan nan 39 6 355 351 345 344 353 357 353 348 341 331 325 321 320 315 323 323 307 302 305 302 300 298 299 301 305 307 300 300 305 304 307 303 302 304 303 304 301 301 nan nan nan nan nan nan nan nan nan nan nan nan
nan nan nan nan nan nan nan nan nan nan nan nan nan nan nan nan nan nan nan nan nan nan nan nan nan nan nan nan nan nan nan nan nan nan nan 1 357 350 338 337 352 358 353 349 343 333 320 312 316 313 317 314 312 306 309 306 303 302 300 300 305 302 303 302 304 305 306 304 304 302 303 304 304 nan nan nan nan nan nan nan nan nan nan nan nan nan
nan nan nan nan nan nan nan nan nan nan nan nan nan nan nan nan nan nan nan nan nan nan nan nan nan nan nan nan nan nan nan nan nan nan nan nan 356 345 332 334 344 350 347 345 345 342 332 324 321 317 315 308 308 312 312 311 307 305 304 306 308 309 309 310 308 310 308 305 305 304 305 305 304 nan nan nan nan nan nan nan nan nan nan nan nan nan
nan nan nan nan nan nan nan nan nan nan nan nan nan nan nan nan nan nan nan nan nan nan nan nan nan nan nan nan nan nan nan nan nan nan nan nan 347 335 329 330 338 341 343 345 345 349 350 335 322 317 311 308 306 307 307 308 307 305 305 308 312 316 315 314 313 315 312 312 309 307 307 306 304 306 nan nan nan nan nan nan nan nan nan nan nan nan
nan nan nan nan nan nan nan nan nan nan nan nan nan nan nan nan nan nan nan nan nan nan nan nan nan nan nan nan nan nan nan nan nan nan nan nan nan 327 327 329 340 340 342 345 346 350 346 334 318 309 308 307 307 307 306 306 308 305 305 308 315 320 321 321 321 316 317 315 312 309 309 306 302 nan nan nan nan nan nan nan nan nan nan nan nan nan
nan nan nan nan nan nan nan nan nan nan nan nan nan nan nan nan nan nan nan nan nan nan nan nan nan nan nan nan nan nan nan nan nan nan nan nan nan nan nan 330 343 347 351 350 353 356 349 334 320 310 306 305 304 308 307 309 307 307 309 311 321 329 327 325 323 321 321 319 314 311 311 309 304 nan nan nan nan nan nan nan nan nan nan nan nan nan
nan nan nan nan nan nan nan nan nan nan nan nan nan nan nan nan nan nan nan nan nan nan nan nan nan nan nan nan nan nan nan nan nan nan nan nan nan nan 316 335 348 353 352 350 353 353 348 340 334 327 320 310 304 301 307 312 313 318 317 320 328 329 325 327 327 325 321 318 315 315 312 307 304 nan nan nan nan nan nan nan nan nan nan nan nan nan
nan nan nan nan nan nan nan nan nan nan nan nan nan nan nan nan nan nan nan nan nan nan nan nan nan nan nan nan nan nan nan nan nan nan nan nan nan nan 319 333 345 347 345 349 353 350 347 347 343 337 333 327 321 319 317 318 317 319 324 328 331 328 330 332 327 325 322 318 315 311 309 308 307 nan nan nan nan nan nan nan nan nan nan nan nan nan
nan nan nan nan nan nan nan nan nan nan nan nan nan nan nan nan nan nan nan nan nan nan nan nan nan nan nan nan nan nan nan nan nan nan nan nan nan nan nan 335 336 334 332 340 347 344 343 343 341 341 341 338 334 329 327 326 321 319 322 322 325 332 336 332 325 321 316 313 309 308 308 306 nan nan nan nan nan nan nan nan nan nan nan nan nan nan
nan nan nan nan nan nan nan nan nan nan nan nan nan nan nan nan nan nan nan nan nan nan nan nan nan nan nan nan nan nan nan nan nan nan nan nan nan nan 331 328 321 322 330 338 343 344 343 342 344 348 348 343 336 329 328 327 320 325 324 320 323 326 320 317 322 320 317 312 306 302 297 nan nan nan nan nan nan nan nan nan nan nan nan nan nan nan
nan nan nan nan nan nan nan nan nan nan nan nan nan nan nan nan nan nan nan nan nan nan nan nan nan nan nan nan nan nan nan nan nan nan nan nan nan nan 317 310 311 320 329 337 340 340 340 341 344 347 349 349 339 329 319 314 322 325 316 319 323 326 327 327 325 317 313 306 305 303 304 nan nan nan nan nan nan nan nan nan nan nan nan nan nan nan
nan nan nan nan nan nan nan nan nan nan nan nan nan nan nan nan nan nan nan nan nan nan nan nan nan nan nan nan nan nan nan nan nan nan nan nan nan 304 nan nan 307 317 332 335 337 337 339 341 340 343 341 331 321 324 326 324 318 317 320 327 326 325 325 325 319 316 309 304 305 309 306 nan nan nan nan nan nan nan nan nan nan nan nan nan nan nan
nan nan nan nan nan nan nan nan nan nan nan nan nan nan nan nan nan nan nan nan nan nan nan nan nan nan nan nan nan nan nan nan nan nan nan nan nan nan 305 304 309 325 332 333 333 339 341 339 342 341 342 338 335 337 335 326 323 324 328 325 321 326 329 324 319 311 306 309 311 310 304 296 nan nan nan nan nan nan nan nan nan nan nan nan nan nan
nan nan nan nan nan nan nan nan nan nan nan nan nan nan nan nan nan nan nan nan nan nan nan nan nan nan nan nan nan nan nan nan nan nan nan nan nan nan 300 304 317 322 325 334 342 338 333 332 329 336 341 338 330 321 320 322 322 320 321 323 323 329 328 318 312 311 311 313 313 308 293 nan nan nan nan nan nan nan nan nan nan nan nan nan nan nan
nan nan nan nan nan nan nan nan nan nan nan nan nan nan nan nan nan nan nan nan nan nan nan nan nan nan nan nan nan nan nan nan nan nan nan nan nan nan nan 304 313 318 326 339 337 333 325 318 326 338 343 343 338 328 320 321 322 325 327 325 326 328 324 315 312 314 316 315 310 296 284 nan nan nan nan nan nan nan nan nan nan nan nan nan nan nan
nan nan nan nan nan nan nan nan nan nan nan nan nan nan nan nan nan nan nan nan nan nan nan nan nan nan nan nan nan nan nan nan nan nan nan nan nan nan nan 307 315 nan 330 339 337 326 335 342 337 336 339 339 336 329 323 324 328 330 329 328 327 323 316 318 315 317 315 310 300 289 284 288 nan 299 nan nan nan nan nan nan nan nan nan nan nan nan
nan nan nan nan nan nan nan nan nan nan nan nan nan nan nan nan nan nan nan nan nan nan nan nan nan nan nan nan nan nan nan nan nan nan nan nan nan nan nan 313 nan nan nan nan 332 332 337 329 333 339 339 335 331 326 324 326 329 329 327 326 323 319 319 317 313 310 307 295 288 293 295 292 nan nan nan nan nan nan nan nan nan nan nan nan nan nan
nan nan nan nan nan nan nan nan nan nan nan nan nan nan nan nan nan nan nan nan nan nan nan nan nan nan nan nan nan nan nan nan nan nan nan nan nan nan nan nan 313 nan nan nan 320 325 330 336 335 333 333 329 324 323 323 323 326 326 324 325 322 321 317 310 304 299 297 297 302 306 303 297 288 nan nan nan nan nan nan nan nan nan nan nan nan nan
nan nan nan nan nan nan nan nan nan nan nan nan nan nan nan nan nan nan nan nan nan nan nan nan nan nan nan nan nan nan nan nan nan nan nan nan nan nan nan nan nan nan 322 324 325 322 326 330 330 331 328 326 323 325 327 322 319 317 318 319 317 315 313 300 299 302 307 309 309 313 312 304 292 291 nan nan nan nan nan nan nan nan nan nan nan nan
nan nan nan nan nan nan nan nan nan nan nan nan nan nan nan nan nan nan nan nan nan nan nan nan nan nan nan nan nan nan nan nan nan nan nan nan nan nan nan nan nan nan nan 323 321 319 321 327 327 327 324 321 325 330 324 319 315 316 321 323 320 318 308 302 305 308 311 314 314 314 310 300 293 293 297 nan nan nan nan nan nan nan nan nan nan nan
nan nan nan nan nan nan nan nan nan nan nan nan nan nan nan nan nan nan nan nan nan nan nan nan nan nan nan nan nan nan nan nan nan nan nan nan nan nan nan nan nan nan nan nan nan 312 316 315 308 303 307 314 317 321 321 317 315 316 316 315 316 314 305 306 309 312 314 313 310 306 304 301 299 302 nan 304 nan nan nan nan nan nan nan nan nan nan
nan nan nan nan nan nan nan nan nan nan nan nan nan nan nan nan nan nan nan nan nan nan nan nan nan nan nan nan nan nan nan nan nan nan nan nan nan nan nan nan 302 299 298 300 302 304 306 306 309 307 308 312 313 312 310 309 308 308 316 312 308 304 307 310 312 312 309 309 311 313 311 305 308 319 322 318 nan nan nan nan nan nan nan nan nan nan
nan nan nan nan nan nan nan nan nan nan nan nan nan nan nan nan nan nan nan nan nan nan nan nan nan nan nan nan nan nan nan nan nan nan nan nan nan nan nan nan nan nan 294 295 297 302 304 306 306 307 310 314 317 317 316 312 307 308 304 305 305 305 306 308 310 312 313 315 315 316 317 317 319 323 326 326 327 nan nan nan nan nan nan nan nan nan
nan nan nan nan nan nan nan nan nan nan nan nan nan nan nan nan nan nan nan nan nan nan nan nan nan nan nan nan nan nan nan nan nan nan nan nan nan nan nan nan nan 288 290 293 297 302 306 305 304 308 313 316 316 318 314 310 311 310 309 308 308 309 310 311 314 316 316 315 317 317 319 324 326 326 325 323 nan nan nan nan nan nan nan nan nan nan
nan nan nan nan nan nan nan nan nan nan nan nan nan nan nan nan nan nan nan nan nan nan nan nan nan nan nan nan nan nan nan nan nan nan nan nan nan nan nan 277 282 287 292 294 295 298 298 299 299 303 308 313 313 308 305 306 305 307 310 310 309 309 310 311 311 312 312 312 313 315 321 321 324 326 323 320 nan nan nan nan nan nan nan nan nan nan
nan nan nan nan nan nan nan nan nan nan nan nan nan nan nan nan nan nan nan nan nan nan nan nan nan nan nan nan nan nan nan nan nan nan nan nan nan nan nan nan nan 286 nan 290 293 292 290 293 297 301 304 303 304 306 306 306 307 310 311 309 308 308 308 309 309 309 311 316 317 318 322 323 326 323 317 306 nan nan nan nan nan nan 304 298 299 305
nan nan nan nan nan nan nan nan nan nan nan nan nan nan nan nan nan nan nan nan nan nan nan nan nan nan nan nan nan nan nan nan nan nan nan nan nan nan nan nan nan nan nan nan nan nan 283 281 285 290 294 300 303 304 306 305 306 306 306 304 303 305 306 308 311 313 316 315 313 317 321 322 320 315 305 nan nan nan nan nan 317 310 299 300 306 310
nan nan nan nan nan nan nan nan nan nan nan nan nan nan nan nan nan nan nan nan nan nan nan nan nan nan nan nan nan nan nan nan nan nan nan nan nan nan nan nan nan nan 273 272 268 268 272 275 277 284 293 297 297 298 301 303 303 303 302 300 301 304 307 309 311 311 312 314 314 318 322 322 317 307 302 nan nan nan nan 315 308 301 295 302 308 308
nan nan nan nan nan nan nan nan nan nan nan nan nan nan nan nan nan nan nan nan nan nan nan nan nan nan nan nan nan nan nan nan nan nan nan nan nan nan 275 273 274 275 273 273 277 276 275 279 282 286 288 292 296 297 299 302 304 301 300 300 302 305 307 308 307 308 311 313 316 319 319 315 312 310 311 315 nan nan 311 313 310 302 296 300 298 296
nan nan nan nan nan nan nan nan nan nan nan nan nan nan nan nan nan nan nan nan nan nan nan nan nan nan nan nan 242 nan nan nan 255 251 252 255 261 262 268 277 276 277 276 274 272 272 277 281 283 285 290 296 298 296 298 300 301 298 297 300 301 305 307 306 307 310 310 310 313 314 312 315 318 316 314 nan nan 304 308 304 299 297 297 297 295 293
nan nan nan nan nan nan nan nan nan 223 225 nan nan nan nan nan nan nan nan nan 235 nan nan nan nan nan nan nan nan 253 247 253 252 250 251 256 256 258 261 262 265 267 271 273 276 277 279 281 284 290 294 291 293 297 298 298 294 293 294 297 301 303 305 305 303 303 305 307 308 310 312 315 320 321 313 301 297 301 302 297 291 288 288 288 286 292
nan nan nan nan nan nan nan nan nan 223 nan nan nan nan nan nan nan nan nan nan nan nan nan nan nan nan nan nan nan nan nan 252 251 252 253 255 261 261 260 261 263 264 265 268 272 274 276 277 278 281 284 288 295 297 297 293 290 288 291 295 296 296 293 292 296 298 299 302 306 308 311 314 317 313 300 293 297 303 304 296 291 292 293 293 288 289
nan nan nan nan nan nan nan nan nan 221 223 227 nan 228 nan nan nan nan nan nan nan nan nan nan nan nan nan nan nan 251 251 249 250 252 255 258 261 261 260 260 261 265 269 271 273 275 277 278 279 281 285 288 291 291 290 288 287 284 281 281 284 287 288 290 291 295 297 298 302 306 307 306 307 306 300 295 296 303 306 299 297 300 300 296 293 298
nan nan nan nan nan nan nan nan nan nan nan 216 231 nan nan nan nan nan nan nan nan nan nan nan nan nan nan nan nan 249 250 250 247 250 254 256 261 263 264 264 266 268 270 272 274 275 276 275 275 278 282 285 284 281 278 279 279 278 279 282 283 285 287 288 291 293 296 297 298 299 301 303 305 305 301 297 296 301 301 297 297 295 293 296 300 301
nan nan nan nan 197 203 nan nan nan 215 218 nan nan nan nan 241 243 246 nan nan 245 241 nan 243 240 239 246 253 nan 256 257 256 257 254 256 258 262 267 272 276 276 275 274 275 275 274 273 275 278 280 280 280 279 277 278 278 280 281 281 281 282 283 285 287 289 291 292 294 297 299 302 302 304 305 299 295 297 298 292 288 290 292 295 299 301 302
233 nan nan nan nan nan nan nan 215 nan 221 228 nan nan nan nan nan 246 248 249 245 248 248 nan nan 244 244 250 254 252 256 261 262 261 261 264 266 269 272 274 275 275 274 273 273 274 273 274 277 278 279 278 278 278 278 278 280 281 280 281 282 283 285 286 287 289 292 295 297 301 302 302 298 295 290 278 280 288 286 287 290 295 298 300 300 298
240 236 nan nan nan nan nan nan nan nan nan nan nan nan nan nan nan 247 247 248 nan nan nan nan 249 248 247 248 252 255 254 256 262 264 267 270 273 273 274 274 274 273 272 273 273 273 274 278 279 279 279 278 277 279 278 279 279 281 282 282 284 286 288 289 292 295 299 302 302 302 299 297 298 291 272 268 277 282 282 285 292 295 297 298 300 302
239 240 nan nan nan nan nan nan nan nan nan 215 nan nan nan nan nan nan nan nan nan nan nan nan nan nan nan nan 254 256 256 256 262 266 264 264 265 266 268 270 271 268 265 265 267 274 276 277 278 277 278 278 278 278 279 280 282 284 284 283 283 284 286 nan nan 295 296 294 292 291 291 289 285 281 278 280 287 290 287 290 294 297 297 298 300 303
238 239 247 nan nan nan nan nan nan nan nan nan nan nan nan nan nan nan nan nan nan nan nan nan nan nan 260 259 nan nan nan nan 256 260 263 262 261 263 267 270 270 269 268 271 274 276 280 277 277 277 279 280 280 280 280 283 284 284 282 284 285 287 287 288 290 nan 297 299 300 nan nan nan 293 nan nan 290 284 283 283 286 288 289 288 288 293 297
235 240 nan nan nan nan nan nan nan nan nan nan nan nan nan nan nan 249 nan 249 253 nan nan nan nan nan nan nan nan nan nan nan nan nan 253 259 264 268 272 273 272 274 275 276 275 277 277 278 280 280 281 281 281 282 284 284 284 284 286 285 287 289 289 292 295 nan nan nan nan nan nan nan nan nan nan nan 293 292 289 284 286 287 292 295 291 291
nan nan nan nan nan nan nan nan nan nan nan nan nan nan nan nan nan nan 253 nan nan nan nan nan nan nan nan nan nan nan nan nan nan nan 257 262 268 276 277 276 279 278 278 277 278 279 280 280 280 281 282 283 282 282 283 284 285 285 285 287 290 292 nan 293 296 nan nan nan nan nan nan nan nan nan nan 293 295 296 295 293 288 285 285 290 291 291